ARIANE 42P R/B, 22079

Orbit data source: Space-Track

ARIANE 42P R/B, 22079 is space debris in LEO originally from a launch on Mon, 10 Aug 1992 UTC launched from the French Guiana (FRGUI). Debris objects in space refer to the collection of defunct objects orbiting the Earth. Examples of debris include non-operational satellites, rocket bodies, and fragments generated from explosions, collisions, or faulty payload assembly.

Loading next visibility...
ARIANE 42P R/B details
Identifier
22079, 1992-052D
Orbit
LEO
Last TLE update1 day ago
Origin
Flag of FRArianespace (FR)
ManufacturerAe/LesM
MissionSpacecraft
Bus & MotorARIANE H10, Unknown motor
Mass1,875 kg wet, 1,820 kg dry
Launch date (UTC)
1992-08-10 (32 years ago)
Launch vehicleUnknown
Launch site
French Guiana (FRGUI)
Object type
Payload
Rocket body
Debris
Shape & HBRCyl, 12.1 m
Radar Cross Section27.363 m², Large (>1 m²)

Expand to show TLE details & history

TLE from 1 day ago
0 ARIANE 42P R/B
1 22079U 92052D   24360.43411321  .00000019  00000-0  35673-3 0  9999
2 22079  66.0673 337.9825 0070181 194.6187 332.4957 12.77937378510542
Epoch: 2024-12-25T10:25Z
Definitive object data (Epoch: 2024-12-25T10:25:07.381Z)
Latitude12.07761°
Longitude-98.14815°
Altitude1,302.905 km
Speed7.229 km/s
True Right ascension10h 10m 14s
True Declination12° 00' 45"
Sunlit
Object was in partial shadow at TLE epoch
Visualization TLE readout
Latitude28.22786°
Longitude98.94979°
Altitude1,404.143 km
Speed7.137 km/s
Apparent Right ascension22h 33m 02s
Apparent Declination-2° 02' 37"
Sunlit
Object is in daylight
Visualization observer readout
Local Sidereal Time09:28:45
Azimuth334.837° NNW
Elevation-49.414°
Doppler factor1
Orbital elements
Apogee altitude1,402.562 km
Perigee altitude1,294.111 km
Semi-major axis7,726.473 km
Eccentricity0.0070181
Inclination66.0673°
RAAN337.9825°
Arg. of periapsis194.6187°
True anomaly332.12139°
Mean anomaly332.4957°
Eccentric anomaly332.30884°
Mean motion3.19574 °/min
BSTAR0.00035673
Orbital period112.65 mins
Loading maneuver chart data...
Loading historical data...
Loading historical data...
Loading historical data...
Loading historical data...
Loading historical data...
Loading historical data...
Loading historical data...

ARIANE 42P R/B Visibility forecast

Observer location: undefined°, undefined

Span
Click to sort rows by Start time (UTC) header in descending order
Start Az.
Max El. time (UTC)
Max El. Az.
Max El.
End time (UTC)
End Az.
13 mins2024-12-26 10:35:37.484Z312.114° NW2024-12-26 10:41:37.484Z257.702° W31.173°2024-12-26 10:48:37.484Z189.842° SSW
14 mins2024-12-26 23:12:37.484Z170.764° S2024-12-26 23:19:37.484Z101.704° ESE32.879°2024-12-26 23:26:37.484Z44.087° NE
14 mins2024-12-27 01:08:37.484Z238.464° WSW2024-12-27 01:15:37.484Z316.418° NNW37.198°2024-12-27 01:22:37.484Z20.494° NNE
7 mins2024-12-27 03:10:37.484Z308.882° NW2024-12-27 03:13:37.484Z332.088° NNW15.035°2024-12-27 03:17:37.484Z2.711° NNE
10 mins2024-12-27 07:10:37.484Z359.013° N2024-12-27 07:14:37.484Z33.988° NE20.393°2024-12-27 07:20:37.484Z83.183° E
14 mins2024-12-27 09:05:37.484Z332.759° NNW2024-12-27 09:12:37.484Z80.466° E44.416°2024-12-27 09:19:37.484Z145.75° SSE
|